Time,TemperatureF,DewpointF,PressureIn,WindDirection,WindDirectionDegrees,WindSpeedMPH,WindSpeedGustMPH,Humidity,HourlyPrecipIn,Conditions,Clouds,dailyrainin,SolarRadiationWatts/m^2,SoftwareType,DateUTC
2013-03-19 00:08:00,58.2,28.0,29.96,East,81,3.0,4.0,31,0.00,,,0.00,0,weatherlink.com 1.10,2013-03-19 07:08:00,
2013-03-19 00:23:00,58.4,28.0,29.96,ENE,66,3.0,5.0,31,0.00,,,0.00,0,weatherlink.com 1.10,2013-03-19 07:23:00,
2013-03-19 00:38:00,58.3,28.0,29.96,ENE,62,3.0,5.0,31,0.00,,,0.00,0,weatherlink.com 1.10,2013-03-19 07:38:00,
2013-03-19 00:53:00,59.3,28.0,29.96,NE,53,3.0,5.0,30,0.00,,,0.00,0,weatherlink.com 1.10,2013-03-19 07:53:00,
2013-03-19 01:08:00,60.0,28.0,29.96,NE,53,0.0,3.0,30,0.00,,,0.00,0,weatherlink.com 1.10,2013-03-19 08:08:00,
2013-03-19 01:23:00,57.0,29.0,29.96,NE,53,1.0,2.0,35,0.00,,,0.00,0,weatherlink.com 1.10,2013-03-19 08:23:00,
2013-03-19 01:38:00,55.0,29.0,29.96,NE,53,0.0,2.0,37,0.00,,,0.00,0,weatherlink.com 1.10,2013-03-19 08:38:00,
2013-03-19 01:53:00,54.7,30.0,29.96,NE,53,0.0,1.0,39,0.00,,,0.00,0,weatherlink.com 1.10,2013-03-19 08:53:00,
2013-03-19 02:08:00,54.2,29.0,29.96,NE,53,1.0,2.0,38,0.00,,,0.00,0,weatherlink.com 1.10,2013-03-19 09:08:00,
2013-03-19 02:24:00,53.8,29.0,29.96,ENE,67,1.0,1.0,39,0.00,,,0.00,0,weatherlink.com 1.10,2013-03-19 09:24:00,
2013-03-19 02:39:00,53.8,29.0,29.96,ENE,67,4.0,5.0,39,0.00,,,0.00,0,weatherlink.com 1.10,2013-03-19 09:39:00,
2013-03-19 02:54:00,54.2,29.0,29.95,ENE,58,3.0,4.0,38,0.00,,,0.00,0,weatherlink.com 1.10,2013-03-19 09:54:00,
2013-03-19 03:09:00,53.3,29.0,29.95,ENE,58,1.0,2.0,40,0.00,,,0.00,0,weatherlink.com 1.10,2013-03-19 10:09:00,
2013-03-19 03:24:00,52.9,30.0,29.95,ENE,58,0.0,2.0,42,0.00,,,0.00,0,weatherlink.com 1.10,2013-03-19 10:24:00,
2013-03-19 03:39:00,52.4,30.0,29.94,ENE,58,4.0,4.0,43,0.00,,,0.00,0,weatherlink.com 1.10,2013-03-19 10:39:00,
2013-03-19 03:54:00,52.6,30.0,29.93,ENE,71,4.0,4.0,43,0.00,,,0.00,0,weatherlink.com 1.10,2013-03-19 10:54:00,
2013-03-19 04:09:00,53.6,30.0,29.93,ENE,66,3.0,4.0,41,0.00,,,0.00,0,weatherlink.com 1.10,2013-03-19 11:09:00,
2013-03-19 04:24:00,53.4,31.0,29.93,ENE,67,0.0,3.0,42,0.00,,,0.00,0,weatherlink.com 1.10,2013-03-19 11:24:00,
2013-03-19 04:39:00,51.6,31.0,29.93,ENE,67,1.0,3.0,45,0.00,,,0.00,0,weatherlink.com 1.10,2013-03-19 11:39:00,
2013-03-19 04:54:00,51.4,31.0,29.93,ENE,67,1.0,4.0,46,0.00,,,0.00,0,weatherlink.com 1.10,2013-03-19 11:54:00,
2013-03-19 05:09:00,50.1,31.0,29.94,ENE,67,0.0,2.0,49,0.00,,,0.00,0,weatherlink.com 1.10,2013-03-19 12:09:00,
2013-03-19 05:24:00,49.3,32.0,29.94,East,90,3.0,3.0,51,0.00,,,0.00,0,weatherlink.com 1.10,2013-03-19 12:24:00,
2013-03-19 05:39:00,49.8,31.0,29.94,ENE,65,4.0,5.0,49,0.00,,,0.00,0,weatherlink.com 1.10,2013-03-19 12:39:00,
2013-03-19 05:54:00,51.5,32.0,29.95,ENE,73,3.0,4.0,47,0.00,,,0.00,0,weatherlink.com 1.10,2013-03-19 12:54:00,
2013-03-19 06:09:00,51.8,32.0,29.95,ENE,73,2.0,4.0,47,0.00,,,0.00,0,weatherlink.com 1.10,2013-03-19 13:09:00,
2013-03-19 06:24:00,52.2,32.0,29.95,NE,49,4.0,5.0,46,0.00,,,0.00,0,weatherlink.com 1.10,2013-03-19 13:24:00,
2013-03-19 06:39:00,52.0,32.0,29.95,East,86,0.0,4.0,47,0.00,,,0.00,14,weatherlink.com 1.10,2013-03-19 13:39:00,
2013-03-19 06:54:00,49.9,33.0,29.96,East,87,0.0,1.0,53,0.00,,,0.00,33,weatherlink.com 1.10,2013-03-19 13:54:00,
2013-03-19 07:09:00,49.6,32.0,29.97,East,87,0.0,1.0,52,0.00,,,0.00,69,weatherlink.com 1.10,2013-03-19 14:09:00,
2013-03-19 07:24:00,51.9,34.0,29.97,East,86,2.0,3.0,50,0.00,,,0.00,90,weatherlink.com 1.10,2013-03-19 14:24:00,
2013-03-19 07:39:00,53.7,34.0,29.97,ENE,69,1.0,4.0,47,0.00,,,0.00,127,weatherlink.com 1.10,2013-03-19 14:39:00,
2013-03-19 07:54:00,56.4,34.0,29.98,ENE,69,1.0,4.0,43,0.00,,,0.00,98,weatherlink.com 1.10,2013-03-19 14:54:00,
2013-03-19 08:09:00,59.9,35.0,29.99,East,94,0.0,2.0,39,0.00,,,0.00,288,weatherlink.com 1.10,2013-03-19 15:09:00,
2013-03-19 08:39:00,63.9,36.0,30.00,SE,129,3.0,3.0,35,0.00,,,0.00,276,weatherlink.com 1.10,2013-03-19 15:39:00,
2013-03-19 08:54:00,65.4,35.0,30.00,South,184,2.0,4.0,33,0.00,,,0.00,258,weatherlink.com 1.10,2013-03-19 15:54:00,
2013-03-19 09:10:00,65.2,35.0,30.01,South,173,1.0,2.0,33,0.00,,,0.00,181,weatherlink.com 1.10,2013-03-19 16:10:00,
2013-03-19 09:25:00,68.9,36.0,30.00,SE,130,2.0,4.0,30,0.00,,,0.00,540,weatherlink.com 1.10,2013-03-19 16:25:00,
2013-03-19 09:40:00,68.9,36.0,30.00,East,96,1.0,5.0,30,0.00,,,0.00,654,weatherlink.com 1.10,2013-03-19 16:40:00,
2013-03-19 09:55:00,71.6,37.0,30.00,West,278,5.0,6.0,28,0.00,,,0.00,615,weatherlink.com 1.10,2013-03-19 16:55:00,
2013-03-19 10:10:00,73.5,36.0,30.00,SSW,194,5.0,7.0,26,0.00,,,0.00,670,weatherlink.com 1.10,2013-03-19 17:10:00,
2013-03-19 10:25:00,75.0,37.0,29.99,WNW,284,1.0,5.0,25,0.00,,,0.00,724,weatherlink.com 1.10,2013-03-19 17:25:00,
2013-03-19 10:55:00,76.1,33.0,30.00,West,276,4.0,11.0,21,0.00,,,0.00,751,weatherlink.com 1.10,2013-03-19 17:55:00,
2013-03-19 11:25:00,76.2,32.0,30.00,WSW,252,3.0,10.0,20,0.00,,,0.00,758,weatherlink.com 1.10,2013-03-19 18:25:00,
2013-03-19 11:40:00,76.4,32.0,29.99,NNW,329,3.0,10.0,20,0.00,,,0.00,738,weatherlink.com 1.10,2013-03-19 18:40:00,
2013-03-19 11:55:00,77.7,31.0,29.99,WNW,294,5.0,10.0,18,0.00,,,0.00,861,weatherlink.com 1.10,2013-03-19 18:55:00,
2013-03-19 12:10:00,77.4,29.0,29.99,NW,314,10.0,16.0,17,0.00,,,0.00,828,weatherlink.com 1.10,2013-03-19 19:10:00,
2013-03-19 12:25:00,78.8,30.0,29.98,WNW,284,6.0,14.0,17,0.00,,,0.00,874,weatherlink.com 1.10,2013-03-19 19:25:00,
2013-03-19 12:40:00,78.9,30.0,29.98,WNW,296,10.0,15.0,17,0.00,,,0.00,861,weatherlink.com 1.10,2013-03-19 19:40:00,
2013-03-19 12:55:00,78.5,30.0,29.97,WSW,258,7.0,12.0,17,0.00,,,0.00,872,weatherlink.com 1.10,2013-03-19 19:55:00,
2013-03-19 13:10:00,79.6,31.0,29.96,WSW,249,6.0,16.0,17,0.00,,,0.00,860,weatherlink.com 1.10,2013-03-19 20:10:00,
2013-03-19 13:25:00,79.2,29.0,29.96,West,270,12.0,17.0,16,0.00,,,0.00,846,weatherlink.com 1.10,2013-03-19 20:25:00,
2013-03-19 13:40:00,79.7,28.0,29.96,West,278,9.0,17.0,15,0.00,,,0.00,831,weatherlink.com 1.10,2013-03-19 20:40:00,
2013-03-19 13:55:00,79.9,28.0,29.95,West,279,7.0,15.0,15,0.00,,,0.00,821,weatherlink.com 1.10,2013-03-19 20:55:00,
2013-03-19 14:10:00,80.1,30.0,29.95,SW,230,12.0,13.0,16,0.00,,,0.00,726,weatherlink.com 1.10,2013-03-19 21:10:00,
2013-03-19 14:25:00,79.9,30.0,29.94,WSW,244,8.0,19.0,16,0.00,,,0.00,784,weatherlink.com 1.10,2013-03-19 21:25:00,
2013-03-19 14:40:00,79.8,30.0,29.94,WSW,243,6.0,14.0,16,0.00,,,0.00,722,weatherlink.com 1.10,2013-03-19 21:40:00,
2013-03-19 14:55:00,79.6,28.0,29.93,WNW,291,13.0,17.0,15,0.00,,,0.00,698,weatherlink.com 1.10,2013-03-19 21:55:00,
2013-03-19 15:10:00,79.6,30.0,29.93,WSW,250,7.0,14.0,16,0.00,,,0.00,624,weatherlink.com 1.10,2013-03-19 22:10:00,
2013-03-19 15:25:00,79.5,28.0,29.94,WNW,285,8.0,14.0,15,0.00,,,0.00,566,weatherlink.com 1.10,2013-03-19 22:25:00,
2013-03-19 15:40:00,79.0,29.0,29.93,NW,307,11.0,14.0,16,0.00,,,0.00,527,weatherlink.com 1.10,2013-03-19 22:40:00,
2013-03-19 15:55:00,78.8,29.0,29.93,NW,306,8.0,16.0,16,0.00,,,0.00,439,weatherlink.com 1.10,2013-03-19 22:55:00,
2013-03-19 16:10:00,78.4,29.0,29.93,West,277,10.0,15.0,16,0.00,,,0.00,371,weatherlink.com 1.10,2013-03-19 23:10:00,
2013-03-19 16:25:00,77.8,28.0,29.93,WNW,298,13.0,15.0,16,0.00,,,0.00,343,weatherlink.com 1.10,2013-03-19 23:25:00,
2013-03-19 16:40:00,77.8,28.0,29.94,WNW,290,4.0,15.0,16,0.00,,,0.00,267,weatherlink.com 1.10,2013-03-19 23:40:00,
2013-03-19 16:55:00,77.1,27.0,29.94,WNW,298,7.0,12.0,16,0.00,,,0.00,216,weatherlink.com 1.10,2013-03-19 23:55:00,
2013-03-19 17:10:00,77.2,28.0,29.94,NW,311,5.0,12.0,16,0.00,,,0.00,336,weatherlink.com 1.10,2013-03-20 00:10:00,
2013-03-19 17:25:00,76.9,29.0,29.94,WNW,292,7.0,14.0,17,0.00,,,0.00,209,weatherlink.com 1.10,2013-03-20 00:25:00,
2013-03-19 17:40:00,76.3,28.0,29.94,NNW,330,8.0,13.0,17,0.00,,,0.00,142,weatherlink.com 1.10,2013-03-20 00:40:00,
2013-03-19 17:55:00,75.6,28.0,29.95,WNW,284,5.0,11.0,17,0.00,,,0.00,58,weatherlink.com 1.10,2013-03-20 00:55:00,
2013-03-19 18:10:00,74.7,28.0,29.95,NW,309,2.0,8.0,18,0.00,,,0.00,30,weatherlink.com 1.10,2013-03-20 01:10:00,
2013-03-19 18:25:00,73.9,28.0,29.95,NNW,327,2.0,8.0,18,0.00,,,0.00,12,weatherlink.com 1.10,2013-03-20 01:25:00,
2013-03-19 18:40:00,73.1,28.0,29.96,NNW,342,2.0,7.0,19,0.00,,,0.00,0,weatherlink.com 1.10,2013-03-20 01:40:00,
2013-03-19 18:55:00,72.0,29.0,29.96,NNW,341,0.0,4.0,20,0.00,,,0.00,0,weatherlink.com 1.10,2013-03-20 01:55:00,
2013-03-19 19:10:00,70.8,29.0,29.96,NNW,342,2.0,4.0,21,0.00,,,0.00,0,weatherlink.com 1.10,2013-03-20 02:10:00,
2013-03-19 19:25:00,69.7,29.0,29.97,North,360,1.0,3.0,22,0.00,,,0.00,0,weatherlink.com 1.10,2013-03-20 02:25:00,
2013-03-19 19:40:00,68.9,29.0,29.97,North,360,1.0,2.0,23,0.00,,,0.00,0,weatherlink.com 1.10,2013-03-20 02:40:00,
2013-03-19 19:55:00,67.9,31.0,29.98,North,360,0.0,2.0,25,0.00,,,0.00,0,weatherlink.com 1.10,2013-03-20 02:55:00,
2013-03-19 20:10:00,64.8,30.0,29.98,ENE,76,3.0,6.0,27,0.00,,,0.00,0,weatherlink.com 1.10,2013-03-20 03:10:00,
2013-03-19 20:25:00,64.5,30.0,29.99,ENE,70,2.0,3.0,27,0.00,,,0.00,0,weatherlink.com 1.10,2013-03-20 03:25:00,
2013-03-19 20:40:00,63.7,30.0,30.00,East,86,2.0,3.0,28,0.00,,,0.00,0,weatherlink.com 1.10,2013-03-20 03:40:00,
2013-03-19 20:55:00,63.1,29.0,30.00,East,82,1.0,5.0,28,0.00,,,0.00,0,weatherlink.com 1.10,2013-03-20 03:55:00,
2013-03-19 21:10:00,62.3,29.0,30.01,ENE,71,0.0,4.0,29,0.00,,,0.00,0,weatherlink.com 1.10,2013-03-20 04:10:00,
2013-03-19 21:25:00,61.3,29.0,30.01,ENE,71,2.0,3.0,29,0.00,,,0.00,0,weatherlink.com 1.10,2013-03-20 04:25:00,
2013-03-19 21:40:00,61.1,28.0,30.01,ENE,72,3.0,4.0,29,0.00,,,0.00,0,weatherlink.com 1.10,2013-03-20 04:40:00,
2013-03-19 21:55:00,60.9,29.0,30.02,ENE,71,2.0,4.0,30,0.00,,,0.00,0,weatherlink.com 1.10,2013-03-20 04:55:00,
2013-03-19 22:10:00,60.8,29.0,30.02,NE,56,2.0,5.0,30,0.00,,,0.00,0,weatherlink.com 1.10,2013-03-20 05:10:00,
2013-03-19 22:25:00,60.8,29.0,30.02,ENE,58,0.0,3.0,30,0.00,,,0.00,0,weatherlink.com 1.10,2013-03-20 05:25:00,
2013-03-19 22:40:00,59.1,30.0,30.03,ENE,69,3.0,3.0,33,0.00,,,0.00,0,weatherlink.com 1.10,2013-03-20 05:40:00,
2013-03-19 22:55:00,57.8,32.0,30.04,SW,221,0.0,3.0,38,0.00,,,0.00,0,weatherlink.com 1.10,2013-03-20 05:55:00,
2013-03-19 23:10:00,57.2,31.0,30.03,SW,223,1.0,3.0,37,0.00,,,0.00,0,weatherlink.com 1.10,2013-03-20 06:10:00,
2013-03-19 23:25:00,58.5,31.0,30.04,SSW,196,0.0,1.0,36,0.00,,,0.00,0,weatherlink.com 1.10,2013-03-20 06:25:00,
2013-03-19 23:40:00,57.9,31.0,30.04,East,89,2.0,3.0,36,0.00,,,0.00,0,weatherlink.com 1.10,2013-03-20 06:40:00,
2013-03-19 23:55:00,57.6,31.0,30.04,ENE,72,3.0,3.0,36,0.00,,,0.00,0,weatherlink.com 1.10,2013-03-20 06:55:00,